Regional Weather Roundup
Issued by NWS Wakefield, VA

Home | Current Version | Previous Version | Graphics & Text | Print | Product List | Glossary On
Versions: 1 2 3 4 5 6 7 8 9 10 11 12 13 14 15 16 17 18 19 20 21 22 23 24 25 26 27 28 29 30 31 32 33 34 35 36 37 38 39 40 41 42 43 44 45 46 47 48 49 50
000
ASUS41 KAKQ 291815
RWRAKQ

REGIONAL WEATHER ROUNDUP
NATIONAL WEATHER SERVICE WAKEFIELD VA
200 PM EDT FRI MAY 29 2015

Note: "fair" indicates few or no clouds below 12,000 feet with no
significant weather and/or obstructions to visibility. * = Denotes
station may not report precipitation (e.g., rain,snow,etc.),
thunder or fog.

VAZ042-051-052>054-056-291900-
NORTHERN VIRGINIA

CITY           SKY/WX    TMP DP  RH WIND       PRES   REMARKS
WASH NATIONAL  MOSUNNY   81  69  67 CALM      30.26F
DULLES         PTSUNNY   79  69  71 SE8       30.25F
FORT BELVOIR   MOSUNNY   81  70  69 VRB1      30.24F
QUANTICO       MOSUNNY   80  70  71 NE6       30.24F
FREDERICKSBRG* PTSUNNY   85  71  64 E5        30.21F
STAFFORD*      MOSUNNY   85  69  58 NE10      30.27F
WARRENTON      MOSUNNY   85  72  65 SE5       30.23F
CULPEPER*      PTSUNNY   81  70  68 CALM      30.24F
MANASSAS*      PTSUNNY   81  72  74 E3        30.25F
LEESBURG*      MOSUNNY   81  70  69 S9        30.26F
WINCHESTER     MOSUNNY   82  61  47 SE6       30.26F
FRONT ROYAL*   MOCLDY    77  70  78 E6        30.25F
LURAY*         MOCLDY    81  72  74 NE5       30.25F
$$

VAZ048-049-060>072-079>083-291900-
CENTRAL AND SOUTH CENTRAL VIRGINIA

CITY           SKY/WX    TMP DP  RH WIND       PRES   REMARKS
RICHMOND       MOSUNNY   86  66  51 SE12G17   30.22F
CHESTERFIELD*  NOT AVBL
PETERSBURG*    PTSUNNY   86  72  62 SE8       30.22F
HANOVER        PTSUNNY   84  68  58 E6        30.23F
TAPPAHANNOCK*  MOSUNNY   85  63  47 SE5       30.24F
QUINTON*       MOCLDY    84  67  57 SE7       30.23S
CHARLOTTSVILLE PTSUNNY   82  69  64 N6        30.23F
GORDONSVILLE*  MOCLDY    82  71  70 CALM      30.22F
ORANGE*        MOSUNNY   81  70  69 CALM      30.25F
LOUISA*        MOSUNNY   88  66  48 SE5       30.21F
BUMPASS*       FAIR      87  69  54 E6        30.22F
FARMVILLE*     PTSUNNY   84  67  56 E9        30.20F
CREWE*         CLOUDY    73  68  84 CALM      30.23F
FORT PICKETT*  MOCLDY    84  69  60 S10       30.22F
CHASE CITY*    MOCLDY    86  71  60 S6        30.22F
CLARKSVILLE*   FAIR      84  68  58 SE5       30.22F
SOUTH HILL*    MOSUNNY   84  67  56 S3        30.28F
LAWRENCEVILLE* FAIR      84  66  54 E7        30.23F
EMPORIA*       MOSUNNY   82  66  57 E6        30.24F
$$

VAZ088>098-291900-
SOUTHEAST VIRGINIA

CITY           SKY/WX    TMP DP  RH WIND       PRES   REMARKS
NORFOLK        SUNNY     84  64  50 E7        30.23F
VIRGINIA BEACH MOSUNNY   83  65  54 SE15      30.25S
NORFOLK NAVAL  MOSUNNY   88  65  46 NE14      30.25F
WEST POINT*    MOSUNNY   87  63  43 SE7       30.25F
SALUDA*        MOCLDY    80  68  67 E12       30.24S
NEWPORT NEWS   PTSUNNY   87  66  49 E9        30.24F
LANGLEY AFB    NOT AVBL
FORT EUSTIS    SUNNY     83  66  56 S9        30.22F
WILLIAMSBURG*  SUNNY     90  68  48 S7        30.25F
HR EXEC AP*    FAIR      88  63  42 E6        30.25F
FRANKLIN*      MOSUNNY   86  62  45 SE9       30.24F
WAKEFIELD      PTSUNNY   83  67  58 E3        30.23F
$$

VAZ020-022-025-037-045-291900-
WEST CENTRAL AND SOUTHWEST VIRGINIA

CITY           SKY/WX    TMP DP  RH WIND       PRES   REMARKS
STAUNTON*      CLOUDY    83  64  52 SW14G20   30.28S
WAYNESBORO*    MOCLDY    74  64  72 W7        30.27F
HOT SPRINGS VA MOSUNNY   72  60  65 SE8       30.35F
LYNCHBURG      CLOUDY    78  70  76 NW5       30.25F
DANVILLE       PTSUNNY   88  66  48 S5        30.22F
SOUTH BOSTON*  CLOUDY    78  65  64 MISG      30.22F
MARTINSVILLE   PTSUNNY   85  65  50 S5        30.26F
ROANOKE        PTSUNNY   83  62  49 S13G18    30.25F
BLACKSBURG     CLOUDY    70  65  84 N5        30.33F
DUBLIN*        MOSUNNY   79  65  60 E8        30.29F
MARION*        CLOUDY    73  63  71 W7        30.31S
HILLSVILLE*    PTSUNNY   78  64  62 SE6       30.33F
RICHLANDS*     CLOUDY    75  63  65 W8        30.28F
WISE*          MOSUNNY   81  55  41 S13       30.29F
ABINGDON*      PTSUNNY   81  63  53 SE8       30.26F
$$

MDZ021>025-VAZ099-100-291900-
SOUTHERN MARYLAND AND THE DELMARVA PENINSULA

CITY           SKY/WX    TMP DP  RH WIND       PRES   REMARKS
PATUXENT RIVER MOSUNNY   79  66  64 SE8       30.24F
BAY BRIDGE APT   N/A    N/A N/A N/A NW8       30.26S
LEONARDTOWN    SUNNY     81  68  65 NE6       30.26S
DOVER          DRIZZLE   79  64  61 E8        30.24F
GEORGETOWN     SUNNY     81  66  60 E8        30.26F
EASTON         MOSUNNY   82  70  65 E6        30.29F
CAMBRIDGE      MOSUNNY   82  66  57 S3        30.23F
SALISBURY      PTSUNNY   84  68  58 SE9G16    30.24F
OCEAN CITY     SUNNY     73  65  75 S7        30.27F
WALLOPS ISLAND SUNNY     79  66  64 S13       30.27S
ACCOMACK*      PTSUNNY   82  63  51 S12       30.26S
$$

NCZ012>017-030>032-291900-
NORTH CENTRAL AND EASTERN NORTH CAROLINA

CITY           SKY/WX    TMP DP  RH WIND       PRES   REMARKS
ROANOKE RAPIDS FAIR      82  64  54 CALM      30.23F
RALEIGH        MOSUNNY   82  64  54 E6        30.24F
ELIZABETH CITY SUNNY     81  66  60 SE12      30.26S
AHOSKIE*       SUNNY     82  58  43 CALM      30.24F
EDENTON*         N/A     83  66  55 E5        30.25S
CURRITUCK*     SUNNY     80  64  56 E7        30.27S
KILL DEVIL HLS SUNNY     78  66  68 E6        30.26S
MANTEO         SUNNY     78  67  68 NE9       30.26F
CAPE HATTERAS  PTSUNNY   83  66  56 E10       30.25F
TARBORO*       FAIR      87  55  33 S3        30.24F
GOLDSBORO      MOSUNNY   85  58  39 VRB1      30.21F
WASHINGTON     MOSUNNY   81  64  54 SE5       30.25F
GREENVILLE     SUNNY     86  63  45 CALM      30.24F
NEW BERN       SUNNY     84  62  47 VRB5      30.24F
WILMINGTON     SUNNY     81  64  56 E9        30.24S
$$

VAZ048-291900-
ELSEWHERE

CITY           SKY/WX    TMP DP  RH WIND       PRES   REMARKS
HARRISBURG PA  MOSUNNY   83  62  49 SE7       30.24F
BALTIMORE      MOSUNNY   80  63  55 VRB7      30.25F
ANNAPOLIS      SUNNY     77  66  68 SE5       30.26F
ANDREWS AFB    MOSUNNY   78  71  77 VRB3      30.25F
PHILADELPHIA   MOSUNNY   83  59  44 NE5       30.25F
HENDERSON NC   MOSUNNY   85  60  42 S9        30.23F
GREENSBORO     PTSUNNY   84  65  52 VRB5      30.23F
ROCKY MOUNT    SUNNY     86  55  34 VRB6      30.24F
$$

VAZ100-291900-
MARINE

STATION/POSITION TIME  TEMP    WIND        PRES    WAVE   SWELL
                       AIR SEA DIR/SP/G            HT/PER HT/PER
                 (UTC) (F)     (DEG/KT/KT) (MB)    (FT/S) (FT/S)
BRANDYWINE LGT   1700   70 69  120/  6/  7 1025.4S
CAPE MAY NJ      1700   71 71   90/  8/ 12 1025.0R
LEWES DE         1700   65 66   90/ 12/ 15 1025.3R
15NM E FENWICK I 1750   68 68              1025.0F   3/ 8
OCEAN-CITY-INLET 1700   71 68  160/  5/  8 1025.1R
WACHAPREAGUE VA  1700   76 76  170/  8/ 10 1024.9F
THOMAS POINT MD  1800   71 70  360/  7/  7 1025.0F
GOOSES REEF MD   1800   75 74   20/  4/  4 1025.3F   1/ 3
COVE POINT MD    1700   74      CALM  /  2 1025.3F
SOLOMONS ISLAND  1700      74                N/A
BISHOPS HEAD MD  1700   75 77  150/  7/  8 1024.4F
PINEY POINT MD   1700          140/  7/  7   N/A
CAMBRIDGE MD     1700   78 75   10/  4/  4 1024.2F
LEWISETTA VA     1700   74 73              1024.0F
RAPPAHANNOCK LGT 1700          210/  6/  7 1025.3S
STINGRAY PT      1800   75 74  170/  8/ 10 1024.3F   1/ 3
YORK RVR RNG VA  1700   75     130/  9/  9 1024.0F
YORKTOWN VA      1700   76 75   90/ 12/ 12 1024.2F
JAMESTOWN VA     1800   80 78  130/  8/ 10   N/A
DOMINION TERM VA 1700   77      80/  9/ 12 1024.5F
KIPTOPEKE VA     1700      76  180/ 11/ 12   N/A
CHES BAY BRIDGE  1700   72 71   70/ 10/ 12 1024.3F
CAPE HENRY VA    1700   72     120/ 12/ 15 1023.6F
CHESAPEAKE LGHT  1700   68     140/ 13/ 13 1025.7S
WILLOUBY STN VA  1700   73      90/  9/ 11 1025.3F
CAPE HENRY BUOY  1728      64                N/A     2/ 9
1ST LANDING BUOY 1800      73              1024.2F
CAPE CHARLES BUO 1726      71                N/A     3/ 8   2/ 8
OFFSHORE WE BUOY 1711      69                N/A     3/ 9   3/ 9
64NM E OF VA BCH 1750   70 68   70/  6/  6 1024.6F   3/ 8   3/ 8
DUCK PIER NC     1700   73 63   70/  8/  9 1024.3F
44100 DUCK FRF   1724      71                N/A     3/ 8
44056 DUCK FRF   1711      69                N/A     2/ 9
OREGON INLET NC  1700   75 78   50/  9/ 11 1024.9F
HATTERAS NC      1700   78 76  100/  6/ 10 1024.3R
DIAMOND SHLS NC  1750   77 79  120/ 12/ 14 1024.2F   4/ 8   3/ 8
CAPE LOOKOUT NC  1800   75      50/ 10/ 10 1023.8F
$$



USA.gov is the U.S. government's official web portal to all federal, state and local government web resources and services.